sat.trackr.live / text

‹ back to catalog

STARLINK-32909

NORAD 62894 · 2025-024R

PAYLOAD ACTIVE UNKNOWN

§ Identity

Operator
Country
US
Launch date
2025-02-04
Launch site
AFETR
Launch vehicle
Mass (kg)
RCS (m²)

Purposes: comms

External: N2YO · Heavens-Above · Gunter

§ Orbital elements

Epoch: 2026-05-24T17:44:24.916992Z

Period
94.26 min
Inclination
42.9992°
Eccentricity
0.0001234
Mean motion
15.27614364 rev/d
Perigee alt
482.1 km
Apogee alt
483.8 km
Semi-major
6,861.1 km
B*
1.1436e-3
RAAN
256.1427°
Arg perigee
269.3718°
Mean anomaly
90.6992°
Rev number
7,389

§ Raw data

STARLINK-329091 62894U 25024R   26144.73917728  .00031373  00000+0  11436-2 0  99962 62894  42.9992 256.1427 0001234 269.3718  90.6992 15.27614364 73890

JSON: /api/v1/satellites/62894 · /tle

For live sub-satellite position, see the globe view (requires WebGL).

§ Visibility from observer

Set your observer location to see the next 7 days of passes ≥ 10°. The values pass through the URL so the page stays shareable.

No JS? Fill the form by hand. The geolocation button needs JavaScript.